Location: Bothwell
(42.3833°S, 147.0000°E)
Time: 07:53:11
(UTC+10:00)

LilacSat-2 - Visible Passes

Search period start: 23 September 2023 00:00
Search period end: 03 October 2023 01:00
Orbit: 494 x 511 km, 97.5° (Epoch: 22 September)

Date Brightness Start Highest point End Pass type
(mag) Time Alt. Az. Time Alt. Az. Time Alt. Az.
23 Sep ? 05:15:55 10° NNE 05:19:32 59° ESE 05:23:13 10° S visible
24 Sep ? 04:57:28 10° NE 05:00:50 34° ESE 05:04:14 10° S visible
24 Sep ? 19:34:46 10° SSW 19:36:52 14° WSW 19:38:57 10° W visible
25 Sep ? 04:39:20 10° ENE 04:42:10 21° ESE 04:45:01 10° SSE visible
25 Sep ? 19:15:14 10° SSW 19:18:14 23° WSW 19:21:14 10° WNW visible
26 Sep ? 04:21:43 10° E 04:23:32 13° ESE 04:25:22 10° SE visible
26 Sep ? 18:56:02 10° S 18:59:33 37° WSW 19:03:02 10° NW visible
27 Sep ? 18:37:01 10° S 18:40:47 64° WSW 18:44:31 10° NNW visible
28 Sep ? 05:15:39 10° NNE 05:19:16 58° ESE 05:22:57 10° S visible
29 Sep ? 04:57:09 10° NE 05:00:29 33° ESE 05:03:54 10° S visible
29 Sep ? 19:34:21 10° SSW 19:36:30 15° WSW 19:38:39 10° W visible
30 Sep ? 04:38:57 10° ENE 04:41:46 21° ESE 04:44:36 10° SSE visible
30 Sep ? 19:14:46 10° SSW 19:17:48 23° WSW 19:20:49 10° WNW visible
01 Oct ? 05:21:17 10° E 05:23:04 13° ESE 05:24:52 10° SE visible
01 Oct ? 19:55:30 10° S 19:59:02 37° WSW 20:02:33 10° NW visible
